Regional Weather Roundup
Issued by NWS Green Bay, WI

Home | Current Version | Previous Version | Graphics & Text | Print | Product List | Glossary Off
Versions: 1 2 3 4 5 6 7 8 9 10 11 12 13 14 15 16 17 18 19 20 21 22 23 24 25 26 27 28 29 30 31 32 33 34 35 36 37 38 39 40 41 42 43 44 45 46 47 48 49 50

000
ASUS43 KGRB 011610
RWRGRB

NORTH-CENTRAL AND NORTHEAST WISCONSIN REGIONAL WEATHER ROUNDUP
NATIONAL WEATHER SERVICE GREEN BAY WI
1000 AM CST SUN MAR 01 2015

WIZ005-009-010>012-018-019-011700-
NORTH CENTRAL WISCONSIN

CITY           SKY/WX    TMP DP  RH WIND       PRES   REMARKS
IRONWOOD       CLOUDY    18  10  73 SW14      30.10S WCI   4
MANITOWISH WTR LGT SNOW  14   8  78 SW12G18   30.11S WCI   1
ARBOR VITAE    LGT SNOW  17  11  77 SW9       30.12S WCI   5
EAGLE RIVER    FLURRIES  15   6  69 SW9       30.12S WCI   3
LAND O LAKES   LGT SNOW  17   8  67 SW10G18   30.11S WCI   4
RHINELANDER    LGT SNOW  13   7  77 SW12      30.14S WCI  -1
PHILLIPS       LGT SNOW  14   9  81 SW8       30.15R WCI   2
ANTIGO         LGT SNOW  13   8  79 SW12      30.18F WCI  -1
TOMAHAWK       LGT SNOW  15   9  76 CALM      30.17R
MERRILL        LGT SNOW  14   8  79 SW9       30.20S WCI   2
$$

WIZ013-073-011700-
NORTHEAST WISCONSIN

CITY           SKY/WX    TMP DP  RH WIND       PRES   REMARKS
IRON MOUNTAIN  MOSUNNY   17   7  64 VRB7      30.15F WCI   8
MARINETTE      MOSUNNY   18   9  68 SW12G17   30.25S WCI   5
OCONTO         MOSUNNY   20  11  66 S9        30.27F WCI   9
$$

WIZ017-030-035>037-045-011700-
CENTRAL WISCONSIN

CITY           SKY/WX    TMP DP  RH WIND       PRES   REMARKS
MEDFORD        LGT SNOW  13   9  83 SW10      30.18S WCI   0
WAUSAU         LGT SNOW  13   8  81 SW8       30.21F WCI   2
MOSINEE        LGT SNOW  12   9  85 S10       30.23F WCI  -1
MARSHFIELD     CLOUDY    13   8  81 SW9       30.22F HAZE    WCI   1
WISC RAPIDS    PTSUNNY   16   9  74 SW8       30.27F WCI   5
STEVENS POINT  FLURRIES  14   8  79 W7        30.25F WCI   4
WAUPACA        MOSUNNY   21  11  65 S6        30.29S
SHAWANO        MOSUNNY   19  11  68 SW6       30.27F
CLINTONVILLE   MOSUNNY   18  10  73 SW9       30.28S WCI   6
$$

WIZ038-039-048-051-011700-
FOX VALLEY

CITY           SKY/WX    TMP DP  RH WIND       PRES   REMARKS
NWS GREEN BAY  MOSUNNY   19  12  74 SW10      30.29F WCI   7
APPLETON       FLURRIES  16  10  79 SW10      30.29S WCI   3
OSHKOSH        CLOUDY    19  12  74 W7        30.30F WCI  10
FOND DU LAC    MOSUNNY   19  12  74 SW7       30.31F WCI  10
$$

WIZ022-050-052-011700-
EAST CENTRAL WISCONSIN

CITY           SKY/WX    TMP DP  RH WIND       PRES   REMARKS
STURGEON BAY   MOSUNNY   19   9  63 SW9       30.30R WCI   9
MANITOWOC      MOSUNNY   23  14  68 SW7       30.31F
SHEBOYGAN      MOSUNNY   19  11  70 W8        30.31F WCI   9
$$

LMZ563-521-522-541>543-011700-
LAKESHORE

STATION/POSITION TIME  TEMP    WIND        PRES    VSBY  WAVE
                       AIR SEA DIR/SP/G                  HT/PER
                 (UTC) (F)     (DEG/KT/KT) (MB)    (MI)  (FT/S)
SHEBOYGAN LKSHOR 1600   18     230/  7/ 10 1028.2F
KEWAUNEE LKSHORE 1600   18     230/  8/ 12 1025.2F
NORTHPORT PIER   1600   19     230/  7/ 12 1024.7F
STURGEON BAY CG  1600   18     230/  9     1026.6      6   1
CHAMBERS ISLAND  1600   15     190/  7/ 13 1024.7F
MENOMINEE LKSHOR 1600   19     210/  8     1025.4S
$$



USA.gov is the U.S. government's official web portal to all federal, state and local government web resources and services.